Time,TemperatureF,DewpointF,PressureIn,WindDirection,WindDirectionDegrees,WindSpeedMPH,WindSpeedGustMPH,Humidity,HourlyPrecipIn,Conditions,Clouds,dailyrainin,SoftwareType,DateUTC
2013-02-28 00:15:00,51.7,47.0,30.01,NW,325,0.0,-999.0,84,-99.99,,,0.00,weatherlink.com 1.10,2013-02-28 06:15:00,
2013-02-28 00:30:00,51.3,47.0,30.01,NW,325,0.0,-999.0,84,-99.99,,,0.00,weatherlink.com 1.10,2013-02-28 06:30:00,
2013-02-28 00:46:00,51.0,46.0,30.01,NW,319,0.0,-999.0,84,-99.99,,,0.00,weatherlink.com 1.10,2013-02-28 06:46:00,
2013-02-28 01:00:00,50.5,46.0,30.02,NW,320,1.0,-999.0,84,-99.99,,,0.00,weatherlink.com 1.10,2013-02-28 07:00:00,
2013-02-28 01:15:00,50.0,45.0,30.02,NW,324,0.0,-999.0,83,-99.99,,,0.00,weatherlink.com 1.10,2013-02-28 07:15:00,
2013-02-28 01:30:00,49.7,45.0,30.02,NW,325,0.0,-999.0,83,-99.99,,,0.00,weatherlink.com 1.10,2013-02-28 07:30:00,
2013-02-28 01:45:00,49.5,45.0,30.02,NNW,343,0.0,-999.0,83,-99.99,,,0.00,weatherlink.com 1.10,2013-02-28 07:45:00,
2013-02-28 02:00:00,49.6,44.0,30.02,NW,321,0.0,-999.0,82,-99.99,,,0.00,weatherlink.com 1.10,2013-02-28 08:00:00,
2013-02-28 02:15:00,49.6,44.0,30.03,NW,320,0.0,-999.0,80,-99.99,,,0.00,weatherlink.com 1.10,2013-02-28 08:15:00,
2013-02-28 02:30:00,49.7,43.0,30.02,NW,322,0.0,-999.0,78,-99.99,,,0.00,weatherlink.com 1.10,2013-02-28 08:30:00,
2013-02-28 02:46:00,49.5,43.0,30.02,NW,322,4.0,-999.0,78,-99.99,,,0.00,weatherlink.com 1.10,2013-02-28 08:46:00,
2013-02-28 03:00:00,48.9,43.0,30.02,NW,319,0.0,-999.0,80,-99.99,,,0.00,weatherlink.com 1.10,2013-02-28 09:00:00,
2013-02-28 03:15:00,48.4,43.0,30.02,NW,317,4.0,-999.0,81,-99.99,,,0.00,weatherlink.com 1.10,2013-02-28 09:15:00,
2013-02-28 03:30:00,47.9,43.0,30.02,NW,320,0.0,-999.0,82,-99.99,,,0.00,weatherlink.com 1.10,2013-02-28 09:30:00,
2013-02-28 03:45:00,47.4,42.0,30.02,NW,322,0.0,-999.0,82,-99.99,,,0.00,weatherlink.com 1.10,2013-02-28 09:45:00,
2013-02-28 04:00:00,47.2,42.0,30.02,NNW,328,1.0,-999.0,81,-99.99,,,0.00,weatherlink.com 1.10,2013-02-28 10:00:00,
2013-02-28 04:16:00,47.0,41.0,30.03,NW,323,1.0,-999.0,81,-99.99,,,0.00,weatherlink.com 1.10,2013-02-28 10:16:00,
2013-02-28 04:32:00,46.7,41.0,30.04,NW,322,5.0,-999.0,81,-99.99,,,0.00,weatherlink.com 1.10,2013-02-28 10:32:00,
2013-02-28 04:45:00,46.2,41.0,30.05,NW,321,0.0,-999.0,82,-99.99,,,0.00,weatherlink.com 1.10,2013-02-28 10:45:00,
2013-02-28 05:01:00,45.7,41.0,30.05,NNW,338,0.0,-999.0,83,-99.99,,,0.00,weatherlink.com 1.10,2013-02-28 11:01:00,
2013-02-28 05:16:00,45.2,41.0,30.05,NNW,334,0.0,-999.0,84,-99.99,,,0.00,weatherlink.com 1.10,2013-02-28 11:16:00,
2013-02-28 05:31:00,44.6,40.0,30.06,NNW,334,0.0,-999.0,85,-99.99,,,0.00,weatherlink.com 1.10,2013-02-28 11:31:00,
2013-02-28 05:46:00,43.9,40.0,30.06,NNW,334,0.0,-999.0,86,-99.99,,,0.00,weatherlink.com 1.10,2013-02-28 11:46:00,
2013-02-28 06:01:00,43.4,40.0,30.06,NNW,334,0.0,-999.0,87,-99.99,,,0.00,weatherlink.com 1.10,2013-02-28 12:01:00,
2013-02-28 06:17:00,42.8,40.0,30.07,NNW,334,0.0,-999.0,88,-99.99,,,0.00,weatherlink.com 1.10,2013-02-28 12:17:00,
2013-02-28 06:31:00,42.2,39.0,30.07,NNW,334,0.0,-999.0,89,-99.99,,,0.00,weatherlink.com 1.10,2013-02-28 12:31:00,
2013-02-28 06:47:00,41.5,39.0,30.07,NNW,334,0.0,-999.0,91,-99.99,,,0.00,weatherlink.com 1.10,2013-02-28 12:47:00,
2013-02-28 07:01:00,41.2,39.0,30.08,NNW,334,0.0,-999.0,92,-99.99,,,0.00,weatherlink.com 1.10,2013-02-28 13:01:00,
2013-02-28 07:16:00,41.4,40.0,30.08,NNW,334,0.0,-999.0,93,-99.99,,,0.00,weatherlink.com 1.10,2013-02-28 13:16:00,
2013-02-28 07:31:00,42.1,40.0,30.09,NNW,330,0.0,-999.0,93,-99.99,,,0.00,weatherlink.com 1.10,2013-02-28 13:31:00,
2013-02-28 07:46:00,43.6,41.0,30.09,NNW,328,0.0,-999.0,90,-99.99,,,0.00,weatherlink.com 1.10,2013-02-28 13:46:00,
2013-02-28 08:01:00,44.9,42.0,30.10,NNW,328,0.0,-999.0,88,-99.99,,,0.00,weatherlink.com 1.10,2013-02-28 14:01:00,
2013-02-28 08:16:00,46.5,42.0,30.11,NW,325,6.0,-999.0,83,-99.99,,,0.00,weatherlink.com 1.10,2013-02-28 14:16:00,
2013-02-28 08:31:00,48.2,41.0,30.10,NW,318,0.0,-999.0,77,-99.99,,,0.00,weatherlink.com 1.10,2013-02-28 14:31:00,
2013-02-28 08:47:00,49.6,41.0,30.10,NW,319,6.0,-999.0,71,-99.99,,,0.00,weatherlink.com 1.10,2013-02-28 14:47:00,
2013-02-28 09:01:00,50.7,40.0,30.10,ENE,58,0.0,-999.0,67,-99.99,,,0.00,weatherlink.com 1.10,2013-02-28 15:01:00,
2013-02-28 09:16:00,51.7,40.0,30.11,NW,309,5.0,-999.0,65,-99.99,,,0.00,weatherlink.com 1.10,2013-02-28 15:16:00,
2013-02-28 09:32:00,52.3,41.0,30.11,NW,325,5.0,-999.0,65,-99.99,,,0.00,weatherlink.com 1.10,2013-02-28 15:32:00,
2013-02-28 09:47:00,52.9,41.0,30.10,WNW,303,2.0,-999.0,64,-99.99,,,0.00,weatherlink.com 1.10,2013-02-28 15:47:00,
2013-02-28 10:02:00,53.7,41.0,30.10,NNW,329,0.0,-999.0,62,-99.99,,,0.00,weatherlink.com 1.10,2013-02-28 16:02:00,
2013-02-28 10:17:00,54.9,40.0,30.10,West,276,1.0,-999.0,58,-99.99,,,0.00,weatherlink.com 1.10,2013-02-28 16:17:00,
2013-02-28 10:32:00,55.6,41.0,30.10,West,277,0.0,-999.0,58,-99.99,,,0.00,weatherlink.com 1.10,2013-02-28 16:32:00,
2013-02-28 10:47:00,56.4,40.0,30.09,NNW,331,1.0,-999.0,55,-99.99,,,0.00,weatherlink.com 1.10,2013-02-28 16:47:00,
2013-02-28 11:02:00,57.7,41.0,30.09,NW,323,9.0,-999.0,55,-99.99,,,0.00,weatherlink.com 1.10,2013-02-28 17:02:00,
2013-02-28 11:18:00,58.3,40.0,30.09,NNW,338,4.0,-999.0,51,-99.99,,,0.00,weatherlink.com 1.10,2013-02-28 17:18:00,
2013-02-28 11:32:00,57.9,40.0,30.09,West,269,3.0,-999.0,51,-99.99,,,0.00,weatherlink.com 1.10,2013-02-28 17:32:00,
2013-02-28 11:47:00,58.4,40.0,30.07,NW,319,0.0,-999.0,50,-99.99,,,0.00,weatherlink.com 1.10,2013-02-28 17:47:00,
2013-02-28 12:02:00,58.8,39.0,30.07,NNW,338,4.0,-999.0,48,-99.99,,,0.00,weatherlink.com 1.10,2013-02-28 18:02:00,
2013-02-28 12:17:00,59.0,39.0,30.07,NW,326,5.0,-999.0,47,-99.99,,,0.00,weatherlink.com 1.10,2013-02-28 18:17:00,
2013-02-28 12:32:00,59.7,40.0,30.06,NW,307,5.0,-999.0,49,-99.99,,,0.00,weatherlink.com 1.10,2013-02-28 18:32:00,
2013-02-28 12:47:00,59.6,40.0,30.06,NNW,344,1.0,-999.0,48,-99.99,,,0.00,weatherlink.com 1.10,2013-02-28 18:47:00,
2013-02-28 13:02:00,59.0,38.0,30.05,NW,317,4.0,-999.0,46,-99.99,,,0.00,weatherlink.com 1.10,2013-02-28 19:02:00,
2013-02-28 13:18:00,58.7,38.0,30.05,WNW,302,1.0,-999.0,47,-99.99,,,0.00,weatherlink.com 1.10,2013-02-28 19:18:00,
2013-02-28 13:34:00,58.2,38.0,30.05,NNW,334,4.0,-999.0,48,-99.99,,,0.00,weatherlink.com 1.10,2013-02-28 19:34:00,
2013-02-28 13:48:00,58.0,37.0,30.04,NW,313,6.0,-999.0,45,-99.99,,,0.00,weatherlink.com 1.10,2013-02-28 19:48:00,
2013-02-28 14:03:00,58.1,34.0,30.04,NW,320,4.0,-999.0,41,-99.99,,,0.00,weatherlink.com 1.10,2013-02-28 20:03:00,
2013-02-28 14:18:00,57.5,34.0,30.04,North,355,4.0,-999.0,41,-99.99,,,0.00,weatherlink.com 1.10,2013-02-28 20:18:00,
2013-02-28 14:33:00,56.6,34.0,30.04,NW,313,6.0,-999.0,42,-99.99,,,0.00,weatherlink.com 1.10,2013-02-28 20:33:00,
2013-02-28 14:48:00,56.8,33.0,30.03,NW,306,2.0,-999.0,41,-99.99,,,0.00,weatherlink.com 1.10,2013-02-28 20:48:00,
2013-02-28 15:03:00,56.8,34.0,30.03,NNW,346,0.0,-999.0,42,-99.99,,,0.00,weatherlink.com 1.10,2013-02-28 21:03:00,
2013-02-28 15:18:00,56.4,33.0,30.03,WNW,300,5.0,-999.0,41,-99.99,,,0.00,weatherlink.com 1.10,2013-02-28 21:18:00,
2013-02-28 15:33:00,55.8,34.0,30.03,North,355,4.0,-999.0,44,-99.99,,,0.00,weatherlink.com 1.10,2013-02-28 21:33:00,
2013-02-28 15:47:00,55.4,36.0,30.03,NW,309,0.0,-999.0,49,-99.99,,,0.00,weatherlink.com 1.10,2013-02-28 21:47:00,
2013-02-28 16:02:00,54.8,35.0,30.03,NW,319,4.0,-999.0,48,-99.99,,,0.00,weatherlink.com 1.10,2013-02-28 22:02:00,
2013-02-28 16:17:00,54.3,36.0,30.03,North,355,2.0,-999.0,50,-99.99,,,0.00,weatherlink.com 1.10,2013-02-28 22:17:00,
2013-02-28 16:32:00,53.7,35.0,30.03,NNW,329,0.0,-999.0,49,-99.99,,,0.00,weatherlink.com 1.10,2013-02-28 22:32:00,
2013-02-28 16:49:00,53.2,36.0,30.04,NW,326,0.0,-999.0,53,-99.99,,,0.00,weatherlink.com 1.10,2013-02-28 22:49:00,
2013-02-28 17:02:00,52.6,37.0,30.04,NNW,332,0.0,-999.0,55,-99.99,,,0.00,weatherlink.com 1.10,2013-02-28 23:02:00,
2013-02-28 17:17:00,52.1,37.0,30.04,NNW,343,2.0,-999.0,57,-99.99,,,0.00,weatherlink.com 1.10,2013-02-28 23:17:00,
2013-02-28 17:32:00,51.7,37.0,30.04,NNW,338,4.0,-999.0,58,-99.99,,,0.00,weatherlink.com 1.10,2013-02-28 23:32:00,
2013-02-28 17:48:00,51.2,37.0,30.04,North,5,0.0,-999.0,58,-99.99,,,0.00,weatherlink.com 1.10,2013-02-28 23:48:00,
2013-02-28 18:02:00,50.8,37.0,30.05,NW,325,0.0,-999.0,59,-99.99,,,0.00,weatherlink.com 1.10,2013-03-01 00:02:00,
2013-02-28 18:17:00,50.5,37.0,30.05,NNW,328,0.0,-999.0,61,-99.99,,,0.00,weatherlink.com 1.10,2013-03-01 00:17:00,
2013-02-28 18:32:00,50.0,38.0,30.05,NW,315,0.0,-999.0,63,-99.99,,,0.00,weatherlink.com 1.10,2013-03-01 00:32:00,
2013-02-28 18:47:00,49.8,38.0,30.05,NW,316,0.0,-999.0,65,-99.99,,,0.00,weatherlink.com 1.10,2013-03-01 00:47:00,
2013-02-28 19:03:00,49.6,38.0,30.06,NW,321,0.0,-999.0,65,-99.99,,,0.00,weatherlink.com 1.10,2013-03-01 01:03:00,
2013-02-28 19:19:00,49.4,38.0,30.07,NW,321,0.0,-999.0,66,-99.99,,,0.00,weatherlink.com 1.10,2013-03-01 01:19:00,
2013-02-28 19:33:00,49.3,39.0,30.07,NW,321,0.0,-999.0,68,-99.99,,,0.00,weatherlink.com 1.10,2013-03-01 01:33:00,
2013-02-28 19:48:00,49.0,39.0,30.07,NW,321,0.0,-999.0,68,-99.99,,,0.00,weatherlink.com 1.10,2013-03-01 01:48:00,
2013-02-28 20:03:00,48.8,39.0,30.07,NW,321,0.0,-999.0,68,-99.99,,,0.00,weatherlink.com 1.10,2013-03-01 02:03:00,
2013-02-28 20:19:00,48.5,38.0,30.08,NW,321,0.0,-999.0,66,-99.99,,,0.00,weatherlink.com 1.10,2013-03-01 02:19:00,
2013-02-28 20:33:00,48.3,38.0,30.09,NW,321,0.0,-999.0,67,-99.99,,,0.00,weatherlink.com 1.10,2013-03-01 02:33:00,
2013-02-28 20:48:00,48.1,38.0,30.10,NW,321,0.0,-999.0,68,-99.99,,,0.00,weatherlink.com 1.10,2013-03-01 02:48:00,
2013-02-28 21:03:00,47.9,38.0,30.10,NW,315,1.0,-999.0,69,-99.99,,,0.00,weatherlink.com 1.10,2013-03-01 03:03:00,
2013-02-28 21:18:00,47.7,39.0,30.11,NW,315,0.0,-999.0,72,-99.99,,,0.00,weatherlink.com 1.10,2013-03-01 03:18:00,
2013-02-28 21:33:00,47.5,39.0,30.11,NW,315,0.0,-999.0,73,-99.99,,,0.00,weatherlink.com 1.10,2013-03-01 03:33:00,
2013-02-28 21:48:00,47.5,40.0,30.11,NW,315,0.0,-999.0,74,-99.99,,,0.00,weatherlink.com 1.10,2013-03-01 03:48:00,
2013-02-28 22:03:00,47.5,39.0,30.11,NW,319,0.0,-999.0,71,-99.99,,,0.00,weatherlink.com 1.10,2013-03-01 04:03:00,
2013-02-28 22:18:00,47.5,39.0,30.11,NW,318,1.0,-999.0,73,-99.99,,,0.00,weatherlink.com 1.10,2013-03-01 04:18:00,
2013-02-28 22:33:00,47.4,39.0,30.11,NW,317,0.0,-999.0,73,-99.99,,,0.00,weatherlink.com 1.10,2013-03-01 04:33:00,
2013-02-28 22:48:00,47.3,39.0,30.11,NW,316,2.0,-999.0,73,-99.99,,,0.00,weatherlink.com 1.10,2013-03-01 04:48:00,
2013-02-28 23:03:00,47.2,39.0,30.11,NW,316,0.0,-999.0,73,-99.99,,,0.00,weatherlink.com 1.10,2013-03-01 05:03:00,
2013-02-28 23:18:00,47.0,39.0,30.11,NW,316,2.0,-999.0,73,-99.99,,,0.00,weatherlink.com 1.10,2013-03-01 05:18:00,
2013-02-28 23:34:00,46.8,39.0,30.11,NW,316,0.0,-999.0,73,-99.99,,,0.00,weatherlink.com 1.10,2013-03-01 05:34:00,
2013-02-28 23:48:00,46.5,39.0,30.11,NW,316,0.0,-999.0,74,-99.99,,,0.00,weatherlink.com 1.10,2013-03-01 05:48:00,